Home   Weather   Honolulu   Past weeks

Flag for USA Past Weather in Honolulu, Hawaii, USA — Yesterday and Last 2 Weeks

Now
74 °F

Scattered clouds.


Feels Like: 75 °F
Forecast: 71 / 82 °F
Wind: 3 mph from Northeast

Location: Honolulu International Airport

Current Time: Apr 28, 2017 at 7:46:20 am

Latest Report: Apr 28, 2017 at 6:53 am


Visibility: 10 mi

Pressure: 29.97 "Hg

Humidity: 76%

Dew Point: 66 °F

Location of HonoluluLocation

Past Weather in Honolulu — Graph

°F

Honolulu Temperature Yesterday

Maximum temperature yesterday: 83 °F (at 12:53 pm)
Minimum temperature yesterday: 73 °F (at 1:53 am)
Average temperature yesterday: 77 °F

High & Low Weather Summary for the Past Weeks

 TemperatureHumidityPressure
High86 °F (Apr 13, 2:53 pm)97% (Apr 20, 7:53 pm)30.14 "Hg (Apr 20, 7:53 pm)
Low70 °F (Apr 15, 3:53 am)42% (Apr 15, 12:53 pm)29.93 "Hg (Apr 19, 4:53 pm)
Average77 °F68%30.04 "Hg
* Reported Apr 13 5:53 am — Apr 28 5:53 am, Honolulu, Weather by CustomWeather, © 2017

Note: Actual official high and low records may vary slightly from our data, if they occured in-between our weather recording intervals... More about our weather records

Advertising

Honolulu Weather History for the Previous 24 Hours

Scroll right to see more
 ConditionsComfort  
Time TempWeatherWind HumidityBarometerVisibility
5:53 am
Fri, Apr 28
72 °FPassing clouds.No wind76%29.96 "Hg10 mi
4:53 am73 °FPartly cloudy.3 mph76%29.96 "Hg10 mi
3:53 am73 °FPassing clouds.6 mph76%29.96 "Hg10 mi
2:53 am73 °FPassing clouds.3 mph76%29.96 "Hg10 mi
1:53 am73 °FPartly cloudy.3 mph76%29.99 "Hg10 mi
12:53 am74 °FPartly cloudy.3 mph74%30.00 "Hg10 mi
11:53 pm
Thu, Apr 27
74 °FPassing clouds.5 mph74%30.02 "Hg10 mi
10:53 pm75 °FPassing clouds.5 mph74%30.04 "Hg10 mi
9:53 pm75 °FPartly cloudy.5 mph76%30.04 "Hg10 mi
8:53 pm75 °FPassing clouds.5 mph74%30.03 "Hg10 mi
7:53 pm76 °FPartly cloudy.5 mph74%30.01 "Hg10 mi
6:53 pm77 °FBroken clouds.6 mph71%30.00 "Hg10 mi
5:53 pm78 °FBroken clouds.8 mph69%29.98 "Hg10 mi
4:53 pm80 °FBroken clouds.8 mph67%29.98 "Hg10 mi
3:53 pm80 °FBroken clouds.12 mph64%29.98 "Hg10 mi
2:53 pm81 °FBroken clouds.9 mph60%29.99 "Hg10 mi
1:53 pm83 °FScattered clouds.14 mph57%30.00 "Hg10 mi
12:53 pm83 °FScattered clouds.10 mph59%30.01 "Hg10 mi
11:53 am82 °FScattered clouds.10 mph60%30.03 "Hg10 mi
10:53 am82 °FScattered clouds.10 mph58%30.04 "Hg10 mi
9:53 am81 °FScattered clouds.7 mph54%30.06 "Hg10 mi
8:53 am80 °FScattered clouds.7 mph56%30.06 "Hg10 mi
7:53 am78 °FScattered clouds.5 mph64%30.06 "Hg10 mi
Weather by CustomWeather, © 2017

See weather overviewHow to use our weather pages